Regional Weather Roundup
Issued by NWS

Home | Current Version | Previous Version | Graphics & Text | Print | Product List | Glossary On
Versions: 1 2 3 4 5 6 7 8 9 10 11 12 13 14 15 16 17 18 19 20 21 22 23 24 25 26 27 28 29 30 31 32 33 34 35 36 37 38 39 40 41 42 43 44 45 46 47 48 49 50
000
ASUS43 KOAX 280502
RWRNE

WEATHER ROUNDUP FOR NEBRASKA
NATIONAL WEATHER SERVICE OMAHA NE
1200 AM CDT THU MAY 28 2015

NOTES: SATELLITE DATA IS BEING USED TO AUGMENT CLOUD COVER ABOVE
       12000 FEET.
       "FAIR" INDICATES FEW OR NO CLOUDS BELOW 12,000 FEET WITH NO
       SIGNIFICANT WEATHER AND/OR OBSTRUCTIONS TO VISIBILITY.

  * THESE STATIONS DO NOT REPORT WEATHER SUCH AS RAIN...SNOW OR FOG.

NEZ001>004-019>022-054>056-280600-
NEBRASKA PANHANDLE

CITY           SKY/WX    TMP DP  RH WIND       PRES   REMARKS
SCOTTSBLUFF    CLOUDY    60  55  83 SE18      29.99F
ALLIANCE       PTCLDY    58  54  86 S18       30.03R
CHADRON        CLEAR     62  55  77 S24       29.97S
KIMBALL          N/A    N/A N/A N/A MISG        N/A
SIDNEY         MOCLDY    57  52  83 S18G26    30.06S
$$

NEZ057>060-069>072-079>082-280600-
SOUTHWEST NEBRASKA

CITY           SKY/WX    TMP DP  RH WIND       PRES   REMARKS
NORTH PLATTE   PTCLDY    62  57  83 S8        30.03F
IMPERIAL       MOCLDY    57  53  86 S10       30.05F
LEXINGTON      CLOUDY    64  60  87 SE6       30.02S
MCCOOK         CLOUDY    63  59  87 S13G22    30.03F
$$

NEZ005>010-023>029-035>040-094-280600-
NORTH CENTRAL NEBRASKA

CITY           SKY/WX    TMP DP  RH WIND       PRES   REMARKS
VALENTINE      CLOUDY    63  54  72 S12       29.99S
AINSWORTH      CLOUDY    63  55  76 S8        30.02S
BROKEN BOW     MOCLDY    61  56  83 SE6       30.03F
ORD            CLOUDY    65  57  75 S7        30.02F
$$

NEZ041-046>049-061>064-073>077-083>087-280600-
SOUTH CENTRAL NEBRASKA

CITY           SKY/WX    TMP DP  RH WIND       PRES   REMARKS
GRAND ISLAND   CLOUDY    67  58  72 S9        30.05F
AURORA         CLOUDY    64  56  75 SE7       30.05F
HASTINGS       CLOUDY    68  58  70 SE12      30.04F
HEBRON         CLOUDY    65  58  79 SE5       30.06S
HOLDREGE       CLOUDY    64  59  82 SE10      30.01F
KEARNEY *      CLOUDY    66  57  72 SE14      30.03F
YORK           CLOUDY    68  54  60 S8        30.06F
$$

NEZ011>018-030>034-042>045-280600-
NORTHEAST NEBRASKA

CITY           SKY/WX    TMP DP  RH WIND       PRES   REMARKS
NORFOLK        CLOUDY    69  48  47 S10       30.05S
ALBION         CLOUDY    68  50  52 SE8       30.05S
BLAIR          MOCLDY    67  49  53 S5        30.08R
COLUMBUS *     CLOUDY    64  48  55 SE7       30.08S
FREMONT        MOCLDY    71  49  46 S9        30.07S
TEKAMAH        MOCLDY    64  55  72 S7        30.06S
WAYNE          MOCLDY    64  52  65 S9        30.06S
$$

NEZ050>053-065>068-078-088>093-280600-
SOUTHEAST NEBRASKA

CITY           SKY/WX    TMP DP  RH WIND       PRES   REMARKS
LINCOLN        MOCLDY    65  53  65 S6        30.07S
OMAHA EPPLEY   CLOUDY    67  53  61 SE7       30.07S
BEATRICE       MOCLDY    66  55  66 SE3       30.08S
NEBRASKA CITY  MOCLDY    63  50  62 S7        30.08F
PLATTSMOUTH    MOCLDY    66  51  57 SE7       30.09R
$$

NEZ044-045-051>053-067-280600-
OMAHA AREA

CITY           SKY/WX    TMP DP  RH WIND       PRES   REMARKS
OMAHA EPPLEY   CLOUDY    67  53  61 SE7       30.07S
BLAIR          MOCLDY    67  49  53 S5        30.08R
FREMONT        MOCLDY    71  49  46 S9        30.07S
OFFUTT AFB     MOCLDY    58  55  87 E2        30.07R
PLATTSMOUTH    MOCLDY    66  51  57 SE7       30.09R
WAHOO          FAIR      65  53  65 S6        30.07S
$$



USA.gov is the U.S. government's official web portal to all federal, state and local government web resources and services.